TimeCST,TemperatureF,Dew PointF,Humidity,Sea Level PressureIn,VisibilityMPH,Wind Direction,Wind SpeedMPH,Gust SpeedMPH,PrecipitationIn,Events,Conditions,WindDirDegrees,DateUTC
12:15 AM,13.6,8.6,80,29.88,10.0,NNW,18.4,26.5,N/A,,Clear,330,2013-01-30 06:15:00
12:35 AM,12.2,7.2,80,29.88,10.0,NNW,17.3,24.2,N/A,,Clear,340,2013-01-30 06:35:00
12:55 AM,11.3,5.9,79,29.89,10.0,NNW,13.8,23.0,N/A,,Clear,330,2013-01-30 06:55:00
1:15 AM,10.4,5.5,81,29.88,10.0,NNW,16.1,23.0,N/A,,Clear,340,2013-01-30 07:15:00
1:35 AM,9.5,4.6,81,29.88,10.0,NNW,11.5,-,N/A,,Clear,330,2013-01-30 07:35:00
1:55 AM,8.4,3.4,80,29.89,10.0,NNW,6.9,-,N/A,,Clear,340,2013-01-30 07:55:00
2:15 AM,9.3,4.1,79,29.88,10.0,NW,12.7,-,N/A,,Clear,310,2013-01-30 08:15:00
2:35 AM,9.3,3.7,78,29.88,10.0,NW,11.5,-,N/A,,Clear,310,2013-01-30 08:35:00
2:55 AM,8.6,3.0,78,29.87,10.0,NW,11.5,-,N/A,,Clear,310,2013-01-30 08:55:00
3:15 AM,8.2,3.0,79,29.87,10.0,NW,10.4,-,N/A,,Clear,320,2013-01-30 09:15:00
3:35 AM,9.0,3.2,77,29.86,10.0,NW,13.8,-,N/A,,Clear,310,2013-01-30 09:35:00
3:55 AM,8.2,2.7,78,29.86,10.0,NW,13.8,18.4,N/A,,Clear,310,2013-01-30 09:55:00
4:15 AM,8.6,3.0,78,29.85,10.0,WNW,12.7,-,N/A,,Clear,300,2013-01-30 10:15:00
4:35 AM,9.1,2.8,76,29.85,10.0,NW,11.5,-,N/A,,Clear,310,2013-01-30 10:35:00
4:55 AM,9.0,2.8,76,29.84,10.0,NW,10.4,-,N/A,,Clear,310,2013-01-30 10:55:00
5:15 AM,7.3,2.1,79,29.83,10.0,NW,10.4,-,N/A,,Clear,310,2013-01-30 11:15:00
5:55 AM,3.2,-1.3,82,29.83,10.0,WNW,11.5,-,N/A,,Clear,290,2013-01-30 11:55:00
6:15 AM,3.9,-0.2,83,29.83,10.0,West,11.5,-,N/A,,Clear,280,2013-01-30 12:15:00
6:35 AM,2.7,-1.7,82,29.81,10.0,WNW,8.1,-,N/A,,Clear,290,2013-01-30 12:35:00
6:55 AM,2.1,-2.2,82,29.81,10.0,Calm,Calm,-,N/A,,Clear,0,2013-01-30 12:55:00
7:15 AM,2.1,-2.0,83,29.80,10.0,WSW,8.1,-,N/A,,Clear,250,2013-01-30 13:15:00
7:35 AM,4.5,0.3,83,29.80,10.0,West,10.4,-,N/A,,Clear,280,2013-01-30 13:35:00
7:55 AM,10.9,4.6,76,29.80,10.0,West,12.7,-,N/A,,Clear,280,2013-01-30 13:55:00
8:15 AM,11.3,5.0,76,29.79,10.0,West,10.4,-,N/A,,Scattered Clouds,280,2013-01-30 14:15:00
8:35 AM,11.3,5.0,76,29.78,10.0,West,6.9,-,N/A,,Overcast,280,2013-01-30 14:35:00
8:55 AM,12.2,6.3,77,29.78,10.0,West,6.9,-,N/A,,Overcast,260,2013-01-30 14:55:00
9:15 AM,11.7,6.6,80,29.78,10.0,West,6.9,-,N/A,,Overcast,270,2013-01-30 15:15:00
9:35 AM,16.7,8.8,71,29.77,10.0,West,10.4,-,N/A,,Overcast,280,2013-01-30 15:35:00
9:55 AM,17.4,9.0,69,29.77,10.0,West,11.5,-,N/A,,Overcast,280,2013-01-30 15:55:00
10:15 AM,20.7,11.8,69,29.77,10.0,WNW,17.3,-,N/A,,Overcast,290,2013-01-30 16:15:00
10:35 AM,23.9,14.2,66,29.77,10.0,WNW,17.3,-,N/A,,Overcast,290,2013-01-30 16:35:00
10:55 AM,25.3,15.3,66,29.77,10.0,WNW,15.0,-,N/A,,Overcast,300,2013-01-30 16:55:00
11:15 AM,27.5,16.5,63,29.77,10.0,WNW,19.6,27.6,N/A,,Overcast,300,2013-01-30 17:15:00
11:35 AM,29.1,17.6,62,29.77,10.0,NW,16.1,24.2,N/A,,Overcast,310,2013-01-30 17:35:00
11:55 AM,30.0,17.2,59,29.77,10.0,NW,17.3,25.3,N/A,,Mostly Cloudy,320,2013-01-30 17:55:00
12:15 PM,30.2,17.4,59,29.77,10.0,NW,19.6,25.3,N/A,,Scattered Clouds,310,2013-01-30 18:15:00
12:35 PM,30.9,17.2,57,29.77,10.0,NW,21.9,29.9,N/A,,Mostly Cloudy,320,2013-01-30 18:35:00
12:55 PM,31.3,15.8,53,29.76,10.0,NW,20.7,32.2,N/A,,Mostly Cloudy,310,2013-01-30 18:55:00
1:15 PM,31.6,17.6,56,29.75,10.0,WNW,24.2,31.1,N/A,,Overcast,300,2013-01-30 19:15:00
1:35 PM,32.4,19.9,60,29.75,10.0,WNW,24.2,29.9,N/A,,Mostly Cloudy,300,2013-01-30 19:35:00
1:55 PM,32.0,18.7,58,29.75,10.0,WNW,24.2,32.2,N/A,,Mostly Cloudy,300,2013-01-30 19:55:00
2:15 PM,32.9,19.4,58,29.74,10.0,NW,20.7,32.2,N/A,,Scattered Clouds,310,2013-01-30 20:15:00
2:35 PM,33.4,19.0,56,29.74,10.0,NW,23.0,31.1,N/A,,Scattered Clouds,310,2013-01-30 20:35:00
2:55 PM,34.2,18.9,54,29.73,10.0,NW,23.0,28.8,N/A,,Scattered Clouds,310,2013-01-30 20:55:00
3:15 PM,33.4,19.6,57,29.73,10.0,NW,21.9,28.8,N/A,,Scattered Clouds,310,2013-01-30 21:15:00
3:35 PM,34.9,20.7,56,29.74,10.0,NW,21.9,28.8,N/A,,Mostly Cloudy,310,2013-01-30 21:35:00
3:55 PM,35.1,20.1,55,29.74,10.0,NW,23.0,27.6,N/A,,Mostly Cloudy,310,2013-01-30 21:55:00
4:15 PM,35.1,20.5,55,29.74,10.0,NW,19.6,24.2,N/A,,Scattered Clouds,310,2013-01-30 22:15:00
4:35 PM,33.1,20.1,59,29.75,10.0,NW,16.1,-,N/A,,Clear,320,2013-01-30 22:35:00
4:55 PM,32.9,21.0,62,29.76,10.0,NW,13.8,-,N/A,,Scattered Clouds,320,2013-01-30 22:55:00
5:15 PM,32.0,21.0,64,29.76,10.0,NW,11.5,-,N/A,,Scattered Clouds,320,2013-01-30 23:15:00
5:35 PM,30.9,21.0,67,29.77,10.0,NW,11.5,-,N/A,,Scattered Clouds,310,2013-01-30 23:35:00
5:55 PM,29.7,20.3,68,29.77,10.0,NW,9.2,-,N/A,,Scattered Clouds,310,2013-01-30 23:55:00
6:15 PM,29.3,20.7,70,29.77,10.0,NW,9.2,-,N/A,,Mostly Cloudy,320,2013-01-31 00:15:00
6:35 PM,29.3,21.2,72,29.78,10.0,NW,10.4,-,N/A,,Overcast,320,2013-01-31 00:35:00
6:55 PM,30.0,21.2,70,29.79,10.0,NW,9.2,-,N/A,,Overcast,320,2013-01-31 00:55:00
7:15 PM,30.0,21.2,70,29.79,10.0,NNW,6.9,-,N/A,,Overcast,330,2013-01-31 01:15:00
7:35 PM,29.8,21.0,70,29.79,10.0,NNW,6.9,-,N/A,,Overcast,330,2013-01-31 01:35:00
7:55 PM,29.7,20.5,69,29.79,10.0,NW,4.6,-,N/A,,Overcast,320,2013-01-31 01:55:00
8:15 PM,29.5,20.7,70,29.80,10.0,WNW,5.8,-,N/A,,Overcast,290,2013-01-31 02:15:00
8:35 PM,28.2,21.2,75,29.80,10.0,West,8.1,-,N/A,,Overcast,260,2013-01-31 02:35:00
8:55 PM,27.1,21.6,80,29.80,10.0,WSW,8.1,-,N/A,,Overcast,250,2013-01-31 02:55:00
9:15 PM,27.5,21.2,77,29.80,10.0,West,8.1,-,N/A,,Overcast,260,2013-01-31 03:15:00
9:35 PM,27.1,21.2,78,29.80,10.0,West,8.1,-,N/A,,Overcast,260,2013-01-31 03:35:00
9:55 PM,27.3,21.2,78,29.80,10.0,West,6.9,-,N/A,,Overcast,260,2013-01-31 03:55:00
10:15 PM,27.3,21.6,79,29.79,10.0,West,8.1,-,N/A,,Overcast,260,2013-01-31 04:15:00
10:35 PM,27.3,21.7,80,29.80,10.0,West,5.8,-,N/A,,Overcast,270,2013-01-31 04:35:00
10:55 PM,26.6,21.2,80,29.79,10.0,West,5.8,-,N/A,,Overcast,260,2013-01-31 04:55:00
11:15 PM,26.6,21.2,80,29.80,10.0,Calm,Calm,-,N/A,,Overcast,0,2013-01-31 05:15:00
11:35 PM,26.2,21.0,81,29.81,10.0,WNW,5.8,-,N/A,,Overcast,300,2013-01-31 05:35:00
11:55 PM,28.0,21.9,78,29.81,10.0,NW,6.9,-,N/A,,Overcast,310,2013-01-31 05:55:00